STARLINK-32439, 61665

Orbit data source: Space-Track

STARLINK-32439, 61665 is a payload satellite owned by SpaceX/Seattle (US) in LEO that was launched on Sat, 26 Oct 2024 UTC via an FALCON 9 launch vehicle from the Air Force Eastern Test Range (AFETR). Payloads include a variety of satellites, spacecraft, and rockets equipped with specific instruments for various scientific and technological missions. These include communications satellites like Starlink; space stations such as the ISS; scientific satellites like the Hubble; Earth observation satellites from companies like Planet Labs, Umbra, and HawkEye 360; GPS; miniature CubeSats for education and research; and military/defense satellites.

Loading next visibility...
STARLINK-32439 details
Identifier
61665, 2024-193E
Orbit
LEO
Last TLE update14 hours ago
Origin
Flag of USSpaceX/Seattle (US)
ManufacturerSpaceX/Seattle
MissionOperational spacecraft
Bus & MotorSTARLINK V2M, Unknown motor
Mass730 kg wet, ~700 kg dry
Launch date (UTC)
2024-10-26 (2 months ago)
Launch vehicle
FALCON 9
Launch site
Air Force Eastern Test Range (AFETR)
Object type
Payload
Rocket body
Debris
Shape & HBRUnknown
Radar Cross SectionLarge (>1 m²)

Expand to show TLE details & history

TLE from 14 hours ago
0 STARLINK-32439
1 61665U 24193E   24361.31384220 -.00001774  00000-0 -34419-4 0  9998
2 61665  53.1633 329.0408 0001477 113.7106 246.4054 15.39587867  9385
Epoch: 2024-12-26T07:31Z
Definitive object data (Epoch: 2024-12-26T07:31:55.966Z)
Latitude
Longitude120.76259°
Altitude448.634 km
Speed7.644 km/s
True Right ascension21h 56m 09s
True Declination0° 00' 00"
Sunlit
Object was in daylight at TLE epoch
Visualization TLE readout
Latitude25.34189°
Longitude138.6404°
Altitude448.242 km
Speed7.647 km/s
Apparent Right ascension02h 35m 20s
Apparent Declination-20° 06' 38"
Sunlit
Object is in daylight
Visualization observer readout
Local Sidereal Time21:04:37
Azimuth110.082° ESE
Elevation-7.403°
Doppler factor1
Orbital elements
Apogee altitude448.592 km
Perigee altitude446.576 km
Semi-major axis6,825.721 km
Eccentricity0.0001477
Inclination53.1633°
RAAN329.0408°
Arg. of periapsis113.7106°
True anomaly246.38989°
Mean anomaly246.4054°
Eccentric anomaly246.39765°
Mean motion3.84876 °/min
BSTAR-0.000034419
Orbital period93.54 mins
Loading maneuver chart data...
Loading historical data...
Loading historical data...
Loading historical data...
Loading historical data...
Loading historical data...
Loading historical data...
Loading historical data...

STARLINK-32439 Visibility forecast

Observer location: undefined°, undefined

Span
Click to sort rows by Start time (UTC) header in descending order
Start Az.
Max El. time (UTC)
Max El. Az.
Max El.
End time (UTC)
End Az.
6 mins2024-12-27 00:50:35.218Z229.129° WSW2024-12-27 00:53:35.218Z230.615° WSW42.708°2024-12-27 00:56:35.218Z49.769° ENE
5 mins2024-12-27 07:24:35.218Z318.576° NNW2024-12-27 07:26:35.218Z42.068° NE43.255°2024-12-27 07:29:35.218Z122.347° SE
|